Wind_Speed
32 33 33 33 32 31 31 31 32 31 30 29 28 28 27 26 25 25 24 24 23 23 22 21 21 22 23 21 20 18 18 17 16 16 16 17 17 16 16 15 15 15 16 16
32 32 32 32 31 31 31 30 30 30 29 28 28 27 26 25 24 24 23 22 22 22 21 20 20 20 21 21 19 18 18 17 16 16 16 15 15 15 15 14 14 14 15 15
33 33 33 33 31 30 30 30 29 29 28 27 26 25 25 24 23 23 21 21 21 21 20 19 19 19 20 19 18 18 18 17 16 16 15 14 14 14 14 13 14 14 14 14
33 32 32 32 30 28 28 27 27 27 27 26 25 24 23 23 22 21 20 20 20 19 19 18 18 18 17 17 17 17 16 16 15 14 14 14 14 13 14 14 14 14 14 13
32 32 32 30 28 27 26 25 26 26 25 25 24 23 22 21 20 20 19 18 19 18 18 18 17 17 16 16 16 15 15 14 14 13 12 12 12 12 12 12 12 12 12 12
31 31 31 30 28 27 26 25 25 25 25 25 23 23 21 20 18 17 17 17 17 17 17 16 16 16 16 15 15 14 14 13 13 12 12 12 11 11 12 11 11 12 12 11
30 30 29 29 27 25 24 23 23 24 23 22 21 20 20 19 18 16 16 16 17 17 16 15 15 15 15 14 13 13 13 12 12 11 11 11 11 11 11 11 11 11 11 12
30 29 28 27 26 25 24 24 23 22 22 21 20 19 19 18 17 16 15 15 15 15 14 14 13 13 13 12 12 11 11 10 10 10 10 10 11 11 10 11 11 11 11 12
30 29 27 26 25 24 23 23 22 21 20 19 18 18 18 18 17 16 14 13 13 13 13 12 12 11 11 10 10 10 9 9 9 9 10 10 10 11 11 11 11 12 13 13
30 27 25 24 24 23 23 22 21 20 19 18 17 17 17 17 15 14 13 12 12 11 11 10 10 10 9 8 8 9 9 9 9 10 10 9 10 10 11 10 11 12 13 13
29 26 24 23 24 23 22 21 20 19 19 19 17 15 15 14 12 11 11 10 10 9 8 8 8 9 8 8 8 9 8 8 8 9 9 9 9 10 10 11 12 12 13 13
27 25 24 23 23 23 22 21 20 19 19 17 14 13 12 11 10 10 9 9 8 8 7 7 7 7 7 7 7 7 7 7 8 9 9 9 10 10 10 12 12 12 13 13
26 24 24 23 23 23 22 20 19 17 16 13 12 11 10 9 9 8 7 7 7 7 6 6 6 5 5 5 5 5 6 6 7 8 9 9 10 10 10 11 12 12 13 13
24 24 23 23 22 22 21 18 16 14 12 10 8 7 7 7 7 6 5 5 5 5 5 5 4 4 4 4 4 5 5 5 7 8 9 9 10 10 11 12 13 13 13 14
23 23 23 22 21 20 19 16 14 12 10 8 7 6 6 6 5 5 5 5 4 3 3 3 3 3 4 4 4 5 5 5 7 8 9 10 10 11 12 13 13 13 14 15
22 21 21 20 20 19 17 14 13 11 10 9 8 7 6 6 5 5 4 4 3 2 2 3 3 4 4 4 4 5 5 6 7 8 9 10 11 12 13 13 13 14 15 16
20 19 19 19 18 16 15 13 12 11 10 9 9 8 7 6 6 5 4 3 3 3 3 2 3 4 4 4 4 4 5 6 8 9 10 11 11 12 12 12 13 14 16 17
18 17 18 17 16 15 14 13 12 10 9 9 9 8 8 7 6 5 4 4 4 3 2 2 2 3 4 4 5 5 6 7 8 9 10 10 11 12 12 13 14 16 17 18
18 17 17 16 15 14 14 13 11 10 10 10 9 9 8 8 7 6 6 4 3 3 2 2 2 3 4 5 5 6 6 7 8 8 9 10 11 13 13 14 15 17 18 19
18 17 17 16 15 14 13 13 11 10 10 9 9 9 8 8 7 6 6 5 4 3 2 2 2 3 3 4 5 6 6 7 8 9 10 11 12 13 14 16 17 18 18 19
19 18 17 16 15 13 13 12 11 10 9 9 8 8 8 8 8 7 7 6 5 3 2 2 2 2 3 3 4 5 6 8 9 10 11 12 13 14 16 17 17 18 19 19
18 17 16 15 14 13 12 11 10 10 9 9 8 8 9 9 9 8 7 6 4 3 2 1 1 2 2 3 4 5 7 8 9 11 11 12 14 15 16 17 18 18 19 20
17 16 16 15 14 13 13 12 10 10 10 9 9 9 9 10 9 8 7 6 5 3 2 1 0 1 2 3 4 6 7 9 10 10 12 13 14 15 16 17 18 19 19 20
17 16 16 15 14 14 14 12 11 11 11 10 10 9 10 10 9 8 7 6 5 3 2 1 0 1 2 3 5 6 8 9 10 11 12 13 15 16 17 18 19 20 20 22
16 16 16 15 15 15 14 14 13 12 11 11 10 10 10 9 9 7 6 6 4 3 2 1 1 1 2 4 5 7 8 9 10 12 13 14 15 16 17 18 19 20 21 22
17 17 17 17 17 16 15 14 14 12 12 11 11 10 10 9 8 7 6 5 5 3 2 1 1 1 3 4 6 7 8 9 11 12 13 14 15 16 18 19 20 21 22 24
18 18 18 18 18 17 16 15 15 13 12 12 11 11 10 9 8 7 6 5 5 3 3 2 1 2 3 5 6 7 8 10 11 12 14 15 16 17 19 20 21 22 24 25
Wind_Direction
299 299 298 297 297 296 296 295 295 297 297 298 299 299 299 298 298 297 299 300 302 303 302 304 307 308 310 308 308 307 307 306 307 306 308 309 308 307 309 306 301 297 294 291
300 298 296 295 294 295 295 294 293 294 294 295 296 297 298 298 300 300 301 302 303 303 302 304 307 308 310 309 306 305 307 306 307 308 309 310 312 311 310 307 305 302 298 294
300 299 297 295 297 296 294 293 293 292 293 294 295 296 298 297 298 298 299 301 303 303 303 303 305 308 310 309 308 309 309 309 307 308 311 312 313 313 312 309 308 307 307 304
303 303 299 300 298 297 294 293 293 292 294 296 297 297 296 296 297 295 295 298 303 303 303 304 307 310 311 312 310 311 314 316 315 312 311 311 311 312 312 311 310 309 309 309
306 306 304 301 298 297 295 292 293 292 293 294 295 295 294 296 296 294 294 295 299 300 302 304 306 309 308 311 310 311 316 320 323 324 323 320 319 319 319 318 318 318 319 316
306 306 305 304 301 299 296 293 293 292 293 294 294 294 294 294 293 291 289 293 297 300 302 304 307 309 310 313 313 316 319 322 325 328 332 330 327 327 326 325 324 326 328 327
304 304 305 305 302 299 297 295 293 292 293 294 293 295 295 293 291 288 288 291 294 297 300 303 306 311 314 315 316 317 322 326 326 329 334 336 335 334 335 334 331 333 334 335
305 304 304 305 301 297 296 295 294 293 293 292 290 291 293 293 291 291 288 287 291 295 298 302 307 312 315 318 320 320 324 328 327 329 333 333 336 339 338 338 338 338 337 337
303 303 301 299 299 296 294 294 294 293 292 290 289 290 293 292 289 288 286 284 288 294 297 301 307 311 317 320 322 323 325 328 328 332 334 333 337 340 341 341 344 344 341 340
298 297 295 293 293 293 291 292 293 292 290 291 290 288 292 290 285 284 284 283 284 291 300 305 310 310 313 319 324 330 329 331 334 337 340 342 342 345 347 348 348 348 347 345
295 293 289 286 286 288 289 290 289 289 290 291 288 284 286 283 279 281 284 281 281 291 300 304 308 311 314 317 319 326 334 337 341 342 342 347 350 351 351 350 349 348 346 345
292 289 286 287 286 286 286 286 288 290 290 289 284 284 282 278 276 279 281 280 286 293 299 302 304 308 311 322 323 328 335 341 347 349 350 351 351 351 351 351 351 349 347 345
287 284 285 287 287 286 285 284 286 288 284 283 280 278 278 277 274 278 285 284 285 288 292 299 305 310 318 320 325 329 337 342 346 349 352 355 356 355 353 352 349 348 348 348
284 282 283 286 288 287 284 281 280 282 281 281 270 269 271 268 269 275 280 282 283 287 291 299 303 310 319 329 337 344 345 344 347 350 352 352 351 350 349 347 347 346 345 346
281 280 282 286 289 286 283 277 274 273 274 268 257 259 264 262 260 262 269 280 287 291 298 305 305 310 310 325 342 351 352 348 347 348 346 344 343 342 342 342 342 342 343 342
281 279 279 282 283 281 278 273 268 265 266 257 249 252 257 257 256 260 266 272 275 283 296 305 311 316 314 321 340 352 355 346 345 346 344 342 341 341 341 341 341 340 340 340
276 273 274 277 276 276 274 268 262 262 254 248 246 247 251 254 255 256 259 254 246 257 271 296 312 326 328 327 338 343 346 344 344 346 344 344 344 343 343 342 342 342 340 339
273 272 272 273 271 270 267 263 260 255 247 246 246 247 247 250 254 252 240 228 222 226 251 288 313 332 330 321 332 342 345 346 343 343 343 345 346 345 342 340 339 340 341 341
267 267 266 270 268 265 262 258 255 249 245 244 245 245 241 239 239 234 226 217 205 213 230 266 303 321 328 328 332 337 341 344 344 344 346 344 343 344 343 341 340 341 341 339
262 260 260 263 262 258 255 253 250 247 244 241 239 237 230 222 219 216 213 208 203 211 230 261 292 311 324 328 330 339 347 351 350 347 344 343 343 345 346 344 342 341 340 340
258 256 256 257 253 248 246 244 241 239 233 228 227 223 215 210 207 206 204 201 203 214 234 264 297 319 329 331 339 350 357 352 348 345 345 346 346 347 346 345 343 342 341 341
255 252 251 249 242 237 232 228 226 222 216 213 216 209 202 196 193 191 191 192 194 199 212 241 300 323 325 335 350 359 358 351 348 347 347 346 347 347 346 345 345 344 343 344
249 246 242 237 231 222 216 214 211 209 205 204 201 195 192 190 189 189 192 193 187 184 188 189 78 358 349 351 353 356 356 354 350 349 348 347 347 347 346 345 346 346 346 345
241 236 231 226 218 213 211 207 204 203 200 196 191 188 189 189 187 188 188 185 184 190 198 191 194 352 348 350 355 356 355 353 351 352 351 350 349 349 349 349 349 348 347 345
230 225 221 214 207 206 205 201 198 197 194 191 189 189 188 188 188 187 186 184 183 187 195 208 235 320 338 343 348 353 353 351 351 351 350 350 351 351 351 350 349 349 348 348
223 218 211 204 202 201 200 196 194 192 189 189 187 188 188 188 186 186 187 189 190 191 195 206 239 306 326 336 342 347 348 350 352 351 351 351 351 351 350 350 350 349 348 347
216 210 204 201 201 201 198 194 192 190 190 190 190 188 188 186 187 190 194 194 196 196 199 214 263 312 322 332 340 343 345 349 350 349 349 350 350 349 348 348 349 348 348 348
Height
5808 5805 5801 5798 5796 5794 5791 5789 5785 5783 5781 5779 5777 5775 5773 5771 5768 5766 5764 5762 5760 5757 5755 5752 5750 5747 5745 5742 5739 5737 5734 5732 5730 5727 5725 5722 5720 5718 5717 5715 5713 5712 5710 5708
5801 5798 5794 5791 5789 5787 5784 5781 5779 5776 5775 5772 5770 5769 5767 5765 5762 5760 5759 5756 5754 5752 5750 5748 5745 5743 5740 5738 5735 5733 5731 5728 5726 5723 5721 5719 5717 5715 5713 5712 5710 5708 5706 5705
5792 5789 5785 5783 5782 5779 5777 5774 5772 5769 5768 5766 5764 5762 5760 5759 5757 5755 5753 5752 5750 5748 5745 5743 5741 5739 5736 5734 5732 5730 5727 5724 5722 5720 5717 5715 5714 5712 5710 5708 5707 5705 5703 5701
5783 5781 5777 5778 5773 5771 5768 5766 5764 5761 5760 5759 5757 5756 5754 5752 5751 5749 5748 5747 5745 5743 5741 5739 5737 5735 5733 5730 5728 5726 5724 5721 5718 5716 5714 5712 5711 5709 5708 5706 5704 5702 5700 5698
5775 5772 5769 5769 5765 5762 5760 5759 5757 5755 5754 5752 5751 5750 5749 5747 5745 5743 5742 5741 5740 5739 5737 5735 5733 5731 5729 5727 5724 5722 5720 5718 5715 5713 5711 5710 5708 5707 5705 5703 5702 5700 5697 5695
5768 5764 5761 5761 5759 5755 5754 5751 5750 5748 5747 5746 5745 5744 5743 5741 5740 5738 5737 5737 5736 5734 5733 5731 5729 5727 5725 5723 5721 5718 5716 5715 5712 5711 5709 5707 5706 5704 5703 5701 5699 5697 5695 5693
5761 5757 5755 5753 5751 5749 5747 5746 5743 5742 5740 5739 5738 5737 5737 5735 5734 5733 5732 5732 5731 5730 5729 5727 5725 5723 5721 5719 5717 5715 5713 5712 5710 5709 5707 5706 5704 5703 5701 5699 5698 5696 5694 5692
5754 5751 5751 5747 5744 5742 5740 5738 5736 5735 5734 5733 5732 5731 5730 5729 5728 5728 5727 5727 5726 5725 5724 5723 5721 5719 5718 5716 5715 5713 5711 5710 5708 5707 5706 5704 5703 5701 5699 5698 5696 5694 5692 5690
5748 5747 5744 5740 5737 5735 5733 5732 5731 5730 5729 5727 5726 5726 5725 5724 5723 5723 5723 5722 5721 5721 5720 5719 5718 5716 5715 5714 5712 5711 5710 5708 5707 5706 5704 5703 5701 5700 5698 5696 5694 5693 5691 5689
5740 5739 5736 5734 5731 5729 5728 5727 5725 5724 5723 5722 5721 5720 5719 5719 5718 5718 5718 5718 5717 5717 5716 5715 5715 5714 5713 5712 5711 5710 5708 5707 5706 5704 5703 5701 5700 5698 5697 5695 5693 5691 5689 5687
5732 5731 5729 5728 5725 5724 5723 5721 5720 5719 5718 5717 5716 5715 5714 5714 5714 5714 5713 5713 5713 5713 5713 5712 5712 5711 5711 5710 5709 5708 5707 5706 5705 5704 5702 5701 5699 5697 5696 5694 5692 5690 5688 5686
5724 5723 5721 5721 5720 5718 5717 5716 5715 5714 5713 5712 5710 5710 5710 5710 5710 5710 5710 5710 5710 5710 5710 5709 5709 5709 5709 5708 5708 5707 5706 5705 5704 5703 5702 5700 5699 5697 5695 5693 5692 5690 5687 5685
5717 5716 5715 5715 5713 5712 5711 5710 5709 5708 5707 5707 5706 5706 5707 5707 5707 5707 5707 5707 5707 5707 5707 5707 5707 5707 5707 5707 5707 5706 5705 5705 5704 5703 5701 5700 5698 5697 5695 5693 5691 5689 5687 5684
5710 5710 5709 5709 5708 5706 5705 5705 5704 5704 5703 5703 5703 5704 5704 5704 5705 5705 5705 5705 5705 5705 5705 5705 5705 5705 5706 5706 5705 5705 5705 5704 5703 5702 5701 5699 5698 5696 5694 5692 5690 5688 5685 5683
5704 5703 5703 5703 5702 5702 5701 5701 5701 5701 5701 5701 5701 5702 5702 5702 5703 5703 5703 5703 5703 5704 5704 5704 5704 5705 5704 5705 5705 5704 5704 5703 5703 5701 5700 5699 5697 5695 5693 5691 5689 5686 5684 5681
5698 5698 5697 5697 5697 5697 5696 5697 5697 5697 5698 5699 5699 5700 5700 5701 5701 5702 5702 5702 5702 5703 5703 5704 5704 5704 5704 5704 5704 5703 5703 5703 5702 5701 5699 5698 5696 5694 5692 5690 5687 5685 5682 5680
5692 5693 5692 5692 5692 5692 5692 5693 5693 5694 5695 5696 5697 5697 5698 5699 5699 5700 5701 5701 5701 5702 5703 5703 5703 5703 5703 5703 5703 5703 5703 5702 5701 5699 5698 5697 5695 5693 5691 5689 5686 5683 5681 5678
5687 5688 5688 5688 5688 5688 5689 5690 5690 5692 5693 5693 5694 5695 5696 5697 5698 5698 5699 5700 5700 5701 5702 5702 5702 5703 5703 5703 5702 5702 5702 5701 5700 5698 5697 5696 5694 5692 5689 5687 5684 5682 5679 5676
5683 5684 5684 5684 5684 5685 5685 5686 5687 5689 5690 5690 5691 5692 5693 5694 5695 5696 5697 5698 5699 5700 5701 5702 5702 5702 5702 5702 5701 5701 5700 5700 5698 5697 5696 5694 5692 5690 5688 5685 5683 5680 5676 5673
5679 5679 5680 5680 5680 5681 5682 5683 5684 5686 5687 5688 5689 5690 5691 5692 5694 5695 5696 5697 5698 5699 5700 5701 5701 5701 5701 5701 5701 5700 5699 5698 5697 5696 5695 5693 5691 5689 5686 5683 5680 5677 5674 5671
5674 5674 5675 5676 5677 5678 5679 5680 5681 5683 5684 5685 5686 5687 5689 5691 5692 5693 5695 5696 5698 5698 5699 5699 5700 5700 5700 5700 5700 5699 5698 5697 5696 5695 5694 5692 5690 5687 5684 5682 5679 5675 5672 5668
5669 5670 5671 5672 5673 5674 5676 5678 5679 5681 5682 5684 5685 5686 5687 5689 5691 5692 5694 5696 5697 5697 5698 5698 5699 5699 5699 5699 5699 5698 5698 5697 5696 5694 5692 5690 5688 5686 5683 5680 5676 5673 5670 5666
5664 5665 5667 5668 5669 5671 5673 5676 5677 5679 5681 5682 5684 5685 5686 5688 5690 5692 5694 5695 5696 5697 5697 5698 5698 5698 5698 5699 5698 5698 5697 5696 5694 5693 5691 5689 5687 5684 5681 5678 5675 5671 5667 5663
5660 5661 5663 5665 5667 5669 5672 5674 5676 5678 5679 5681 5683 5685 5686 5688 5690 5691 5693 5694 5695 5696 5697 5697 5698 5698 5698 5698 5698 5697 5696 5695 5693 5692 5690 5688 5685 5682 5679 5676 5673 5669 5665 5661
5656 5657 5660 5662 5665 5667 5670 5672 5674 5676 5678 5680 5682 5684 5686 5688 5689 5691 5692 5693 5694 5695 5696 5697 5697 5698 5698 5698 5697 5697 5696 5694 5693 5691 5689 5686 5684 5681 5678 5674 5671 5667 5663 5659
5652 5654 5657 5660 5663 5665 5668 5671 5673 5675 5677 5680 5682 5684 5686 5687 5688 5690 5691 5693 5694 5695 5696 5696 5697 5697 5697 5697 5697 5696 5695 5693 5692 5690 5688 5685 5682 5679 5676 5673 5669 5665 5661 5657
5649 5652 5654 5658 5661 5664 5666 5669 5672 5674 5676 5679 5681 5683 5685 5686 5688 5689 5691 5692 5693 5694 5695 5695 5696 5696 5696 5696 5696 5695 5694 5692 5690 5689 5686 5684 5681 5678 5675 5671 5667 5663 5659 5654